This is the latest recevied weather packets stored in our database for station/object W2TAO. If no packets are shown the sender has not sent any weather packets the latest 10 day(s).
| Time | Temp. | Humidity | Pressure | Rain* | Wind** | Luminosity | Snow |
|---|---|---|---|---|---|---|---|
| 1777397042 | 15.56° C | 46% | 1021.5 hPa | 0 mm | - | 279 W/m² | - |
| 1777396739 | 16.11° C | 48% | 1021.6 hPa | 0 mm | - | 253 W/m² | - |
| 1777396435 | 16.11° C | 43% | 1021.6 hPa | 0 mm | - | 246 W/m² | - |
| 1777396132 | 16.11° C | 45% | 1021.6 hPa | 0 mm | - | 260 W/m² | - |
| 1777395828 | 16.11° C | 46% | 1021.7 hPa | 0 mm | - | 258 W/m² | - |
| 1777395524 | 16.11° C | 43% | 1021.8 hPa | 0 mm | - | 262 W/m² | - |
| 1777395220 | 16.11° C | 45% | 1021.7 hPa | 0 mm | - | 279 W/m² | - |
| 1777394918 | 16.11° C | 46% | 1021.8 hPa | 0 mm | - | 259 W/m² | - |
| 1777394613 | 15.56° C | 44% | 1021.7 hPa | 0 mm | - | 272 W/m² | - |
| 1777394311 | 16.11° C | 46% | 1021.9 hPa | 0 mm | - | 290 W/m² | - |
| 1777394007 | 16.11° C | 47% | 1022 hPa | 0 mm | - | 302 W/m² | - |
| 1777393707 | 16.11° C | 47% | 1022 hPa | 0 mm | - | 314 W/m² | - |
| 1777393402 | 16.11° C | 45% | 1021.9 hPa | 0 mm | - | 312 W/m² | - |
| 1777393099 | 16.11° C | 47% | 1021.9 hPa | 0 mm | - | 316 W/m² | - |
| 1777392795 | 16.11° C | 44% | 1022.1 hPa | 0 mm | - | 344 W/m² | - |
| 1777392491 | 15.56° C | 46% | 1022.1 hPa | 0 mm | - | 364 W/m² | - |
| 1777392187 | 15.56° C | 45% | 1022.1 hPa | 0 mm | - | 379 W/m² | - |
| 1777391882 | 16.11° C | 47% | 1022.2 hPa | 0 mm | - | 365 W/m² | - |
| 1777391577 | 15.56° C | 45% | 1022.2 hPa | 0 mm | - | 397 W/m² | - |
| 1777391274 | 15.56° C | 44% | 1022.2 hPa | 0 mm | - | 426 W/m² | - |
| 1777390970 | 15.56° C | 45% | 1022.4 hPa | 0 mm | - | 422 W/m² | - |
| 1777390666 | 15.56° C | 45% | 1022.5 hPa | 0 mm | - | 426 W/m² | - |
| 1777390364 | 15.56° C | 47% | 1022.7 hPa | 0 mm | - | 403 W/m² | - |
| 1777390058 | 15.56° C | 50% | 1022.5 hPa | 0 mm | - | 373 W/m² | - |
| 1777389756 | 15.56° C | 46% | 1022.3 hPa | 0 mm | - | 400 W/m² | - |
* Rain latest hour (hover to see other rain measurements)
** Current wind speed in m/s (hover to see current wind gust speed)